FW3609 Weather Reports


time (UTC)temp
F
wind
direction
speed
knots
gust
knots
rain 1hr
in
rain 24hr
in
rain mn
in
humidity
%
barometer
mb
20220124101623 33 5 0.0 6.1 0.00 0.00 0.00 69 1013.6
20220124100026 33 278 0.0 3.5 0.00 0.00 0.00 71 1013.6
20220124094522 33 310 0.0 3.5 0.00 0.00 0.00 72 1013.3
20220124093131 33 289 1.7 4.3 0.00 0.00 0.00 72 1012.9
20220124091548 31 10 0.0 0.0 0.00 0.00 0.00 79 1012.8
20220124090051 31 130 0.0 0.0 0.00 0.00 0.00 80 1012.7
20220124084657 31 131 0.0 0.0 0.00 0.00 0.00 80 1012.4
20220124083200 30 130 0.0 0.0 0.00 0.00 0.00 80 1012.4
20220124081550 30 130 0.0 0.0 0.00 0.00 0.00 79 1012.3
20220124080021 30 131 0.0 0.0 0.00 0.00 0.00 80 1012.2
20220124074536 30 131 0.0 0.0 0.00 0.00 0.00 80 1012.1
20220124073146 31 131 0.0 0.0 0.00 0.00 0.00 79 1011.9
20220124071644 31 131 0.0 0.0 0.00 0.00 0.00 77 1011.7
20220124064611 32 130 0.0 0.0 0.00 0.00 0.00 74 1011.4
20220124063042 33 131 0.0 0.0 0.00 0.00 0.00 71 1011.4
20220124054614 31 126 0.0 0.0 0.00 0.00 0.00 81 1011.4
20220124053109 33 126 0.0 0.0 0.00 0.00 0.00 81 1011.2
20220124051517 31 122 0.0 0.0 0.00 0.00 0.00 78 1011.4
20220124050121 32 114 0.0 0.0 0.00 0.00 0.00 83 1011.4
20220124044541 30 113 0.0 0.0 0.00 0.00 0.00 77 1011.3
20220124043055 30 113 0.0 0.0 0.00 0.00 0.00 75 1011.2
20220124041533 31 110 0.0 0.0 0.00 0.00 0.00 74 1011.1
20220124040013 30 110 0.0 0.0 0.00 0.00 0.00 74 1011.0
20220124034648 31 110 0.0 0.0 0.00 0.00 0.00 73 1011.0
20220124033137 33 110 0.0 0.0 0.00 0.00 0.00 72 1011.0
20220124031630 35 104 0.0 0.0 0.00 0.00 0.00 71 1010.9
20220124030025 32 8 0.0 0.0 0.00 0.00 0.00 70 1010.8
20220124024505 32 7 0.0 0.0 0.00 0.00 0.00 69 1010.7
20220124023233 33 134 0.0 0.0 0.00 0.00 0.00 68 1010.7
20220124021525 35 134 0.0 0.0 0.00 0.00 0.00 81 1010.6
20220124020216 33 356 0.0 0.0 0.00 0.00 0.00 67 1010.6
20220124014624 32 346 0.0 0.0 0.00 0.00 0.00 66 1010.7
20220124013034 32 345 0.0 0.0 0.00 0.00 0.00 65 1010.6
20220124011531 32 119 0.0 0.0 0.00 0.00 0.00 68 1010.4
20220124010152 32 122 0.0 0.0 0.00 0.00 0.00 64 1010.5
20220124004601 32 122 0.0 0.0 0.00 0.00 0.00 65 1010.4
20220124003047 33 122 0.0 0.0 0.00 0.00 0.00 62 1010.4
20220124001508 33 122 0.0 0.0 0.00 0.00 0.00 60 1010.4
20220124000122 34 122 0.0 0.0 0.00 0.00 0.00 55 1010.3
20220123234540 37 122 0.0 0.0 0.00 0.00 0.00 51 1010.3
20220123233037 38 118 0.0 0.0 0.00 0.00 0.00 54 1010.3
20220123231807 38 195 0.0 0.0 0.00 0.00 0.00 53 1010.3
20220123230039 39 195 0.0 0.0 0.00 0.00 0.00 88 1010.2
20220123224546 36 210 0.0 1.7 0.00 0.00 0.00 50 1010.1
20220123223039 36 194 0.0 1.7 0.00 0.00 0.00 49 1010.1
20220123221528 36 193 0.9 2.6 0.00 0.00 0.00 48 1010.2
20220123220226 37 220 0.0 3.5 0.00 0.00 0.00 48 1010.4
20220123214635 37 204 0.0 2.6 0.00 0.00 0.00 48 1010.3
20220123213043 37 210 0.0 3.5 0.00 0.00 0.00 55 1010.5
20220123211558 37 195 0.9 3.5 0.00 0.00 0.00 46 1010.6
20220123210007 37 202 1.7 4.3 0.00 0.00 0.00 45 1010.7
20220123204609 37 160 0.0 3.5 0.00 0.00 0.00 46 1010.9
20220123203034 37 148 0.9 4.3 0.00 0.00 0.00 44 1010.8
20220123201520 37 162 0.0 4.3 0.00 0.00 0.00 44 1011.1
20220123200150 37 211 2.6 5.2 0.00 0.00 0.00 43 1011.1
20220123194557 38 281 1.7 4.3 0.00 0.00 0.00 43 1011.3
20220123193112 37 201 1.7 6.1 0.00 0.00 0.00 44 1011.9
20220123191510 37 217 1.7 6.1 0.00 0.00 0.00 44 1012.1
20220123190045 37 192 3.5 6.1 0.00 0.00 0.00 43 1012.1
20220123184540 37 148 2.6 6.1 0.00 0.00 0.00 43 1012.4
20220123183121 37 188 1.7 6.1 0.00 0.00 0.00 43 1012.6
20220123181511 37 179 1.7 5.2 0.00 0.00 0.00 45 1012.9
20220123180012 37 196 2.6 7.0 0.00 0.00 0.00 45 1013.1
20220123174617 37 205 1.7 5.2 0.00 0.00 0.00 46 1013.2
20220123173107 36 186 0.0 5.2 0.00 0.00 0.00 50 1013.6
20220123171620 36 125 2.6 5.2 0.00 0.00 0.00 49 1014.0
20220123170109 36 239 1.7 6.1 0.00 0.00 0.00 51 1014.2
20220123164537 36 143 2.6 6.1 0.00 0.00 0.00 51 1015.0
20220123163043 36 168 0.9 3.5 0.00 0.00 0.00 53 1015.3
20220123160048 34 130 0.9 4.3 0.00 0.00 0.00 57 1016.3
20220123154520 33 117 0.9 4.3 0.00 0.00 0.00 58 1016.4
20220123151604 31 138 2.6 5.2 0.00 0.00 0.00 60 1016.6
20220123150032 30 207 0.9 2.6 0.00 0.00 0.00 62 1016.9
20220123144511 29 253 0.0 2.6 0.00 0.00 0.00 64 1017.0
20220123143129 28 219 0.0 2.6 0.00 0.00 0.00 66 1017.1
20220123141632 29 112 0.0 0.0 0.00 0.00 0.00 66 1017.2
20220123140025 30 219 0.9 4.3 0.00 0.00 0.00 66 1017.5
20220123134502 27 110 0.0 1.7 0.00 0.00 0.00 68 1017.6
20220123133123 29 139 0.0 0.0 0.00 0.00 0.00 69 1017.9
20220123131547 29 134 0.0 0.0 0.00 0.00 0.00 71 1017.9
20220123130046 26 131 0.0 0.9 0.00 0.00 0.00 84 1018.1
20220123124611 23 198 0.0 0.9 0.00 0.00 0.00 78 1018.1
20220123123050 20 200 0.0 0.0 0.00 0.00 0.00 82 1018.3
20220123121552 20 200 0.0 0.0 0.00 0.00 0.00 85 1018.6
20220123114738 19 200 0.0 0.0 0.00 0.00 0.00 82 1018.7
20220123113051 19 200 0.0 0.0 0.00 0.00 0.00 85 1018.7
20220123111539 19 200 0.0 0.0 0.00 0.00 0.00 79 1018.7
20220123110045 20 200 0.0 0.0 0.00 0.00 0.00 80 1018.7
20220123104546 22 200 0.0 0.0 0.00 0.00 0.00 79 1018.9
20220123103012 24 197 0.0 0.0 0.00 0.00 0.00 85 1018.7